Location: Estes Par
(40.3770°N, 10.0000°W)
Time: 07:52:17
(UTC-06:00)

Hubble Space Telescope - Visible Passes

Search period start: 19 July 2018 00:00
Search period end: 29 July 2018 00:00
Orbit: 537 x 541 km, 28.5° (Epoch: 18 July)

Date Brightness Start Highest point End Pass type
(mag) Time Alt. Az. Time Alt. Az. Time Alt. Az.
19 Jul 2.6 22:26:16 13° SSW 22:27:48 15° S 22:30:12 10° SSE visible
20 Jul 2.6 22:16:38 14° SSW 22:17:19 14° S 22:19:35 10° SSE visible
21 Jul 2.7 22:07:09 13° S 22:07:09 13° S 22:08:53 10° SSE visible
22 Jul 3.1 21:57:50 10° S 21:57:50 10° S 21:58:02 10° SSE visible
